Location: Colebrook
(42.0017°N, 73.0973°W)
Time: 05:24:22
(UTC-04:00)

Transit 4A - All Passes

Search period start: 21 October 2021 00:00
Search period end: 31 October 2021 00:00
Orbit: 869 x 975 km, 66.8° (Epoch: 20 October)

Date Brightness Start Highest point End Pass type
(mag) Time Alt. Az. Time Alt. Az. Time Alt. Az.
21 Oct - 04:33:03 10° SE 04:36:15 15° ESE 04:39:27 10° ENE visible
21 Oct - 06:15:58 10° SSW 06:21:46 80° WNW 06:27:42 10° NNE visible
21 Oct - 08:05:22 10° WNW 08:09:06 17° NW 08:12:54 10° N daylight
21 Oct - 13:32:23 10° N 13:37:18 24° NE 13:42:16 10° E daylight
21 Oct - 15:18:05 10° NW 15:24:12 71° WSW 15:30:26 10° SSE daylight
21 Oct - 17:08:55 10° W 17:09:30 10° W 17:10:05 10° WSW daylight
22 Oct - 04:40:45 10° SSE 04:45:13 24° ESE 04:49:46 10° NE visible
22 Oct - 06:25:27 10° SW 06:31:07 55° NW 06:36:56 10° NNE visible
22 Oct - 08:16:16 10° WNW 08:18:53 13° NNW 08:21:32 10° N daylight
22 Oct - 13:41:24 10° NNW 13:46:52 33° NE 13:52:26 10° ESE daylight
22 Oct - 15:27:32 10° NW 15:33:24 48° WSW 15:39:24 10° S daylight
23 Oct - 04:49:06 10° S 04:54:17 36° ESE 04:59:35 10° NE visible
23 Oct - 06:35:10 10° WSW 06:40:34 39° NW 06:46:04 10° NNE visible
23 Oct - 12:06:18 10° N 12:08:23 12° NNE 12:10:28 10° NE daylight
23 Oct - 13:50:29 10° NNW 13:56:21 46° NE 14:02:21 10° SE daylight
23 Oct - 15:37:09 10° NW 15:42:33 33° WSW 15:48:02 10° S daylight
24 Oct - 04:57:49 10° S 05:03:26 54° ESE 05:09:09 10° NE visible
24 Oct - 06:45:09 10° WSW 06:50:05 28° NW 06:55:08 10° NNE visible
24 Oct - 12:14:43 10° N 12:18:12 15° NE 12:21:44 10° ENE daylight
24 Oct - 13:59:39 10° NNW 14:05:46 65° ENE 14:12:00 10° SE daylight
24 Oct - 15:47:02 10° WNW 15:51:37 22° WSW 15:56:15 10° SSW daylight
25 Oct - 03:25:54 10° ESE 03:27:21 11° E 03:28:48 10° E visible
25 Oct - 05:06:51 10° SSW 05:12:39 81° ESE 05:18:34 10° NNE visible
25 Oct - 06:55:25 10° W 06:59:43 21° NW 07:04:06 10° N daylight
25 Oct - 12:23:30 10° N 12:27:56 20° NE 12:32:26 10° E daylight
25 Oct - 14:08:55 10° NNW 14:15:06 89° SW 14:21:24 10° SSE daylight
25 Oct - 15:57:31 10° WNW 16:00:37 14° WSW 16:03:44 10° SW daylight
26 Oct - 03:32:32 10° SE 03:36:17 18° ESE 03:40:04 10° ENE visible
26 Oct - 05:16:10 10° SW 05:21:57 70° WNW 05:27:52 10° NNE visible
26 Oct - 07:06:01 10° WNW 07:09:26 16° NW 07:12:54 10° N daylight
26 Oct - 12:32:26 10° NNW 12:37:35 27° NE 12:42:48 10° ESE daylight
26 Oct - 14:18:17 10° NW 14:24:22 62° WSW 14:30:33 10° SSE daylight
27 Oct - 03:40:31 10° SSE 03:45:18 27° ESE 03:50:10 10° NE visible
27 Oct - 05:25:44 10° SW 05:31:20 48° NW 05:37:03 10° NNE visible
27 Oct - 07:17:09 10° NW 07:19:15 12° NNW 07:21:21 10° N daylight
27 Oct - 12:41:29 10° NNW 12:47:07 37° NE 12:52:53 10° ESE daylight
27 Oct - 14:27:47 10° NW 14:33:32 42° WSW 14:39:24 10° S daylight
28 Oct - 03:49:01 10° S 03:54:24 41° ESE 03:59:53 10° NE visible
28 Oct - 05:35:32 10° WSW 05:40:48 34° NW 05:46:11 10° NNE visible
28 Oct - 11:06:03 10° N 11:08:45 13° NNE 11:11:28 10° ENE daylight
28 Oct - 12:50:36 10° NNW 12:56:35 52° NE 13:02:42 10° SE daylight
28 Oct - 14:37:29 10° NW 14:42:39 28° WSW 14:47:55 10° SSW daylight
29 Oct - 03:57:51 10° SSW 04:03:34 63° ESE 04:09:23 10° NE visible
29 Oct - 05:45:37 10° W 05:50:21 25° NW 05:55:12 10° N visible
29 Oct - 11:14:40 10° N 11:18:33 17° NE 11:22:29 10° ENE daylight
29 Oct - 12:59:48 10° NNW 13:05:58 74° ENE 13:12:16 10° SE daylight
29 Oct - 14:47:31 10° WNW 14:51:42 19° WSW 14:55:55 10° SSW daylight
30 Oct - 02:24:46 10° SE 02:27:22 13° ESE 02:30:00 10° ENE visible
30 Oct - 04:07:00 10° SSW 04:12:48 89° WNW 04:18:44 10° NNE visible
30 Oct - 05:55:59 10° W 06:00:01 19° NW 06:04:07 10° N visible
30 Oct - 11:23:31 10° N 11:28:15 23° NE 11:33:03 10° E daylight
30 Oct - 13:09:06 10° NNW 13:15:16 79° WSW 13:21:34 10° SSE daylight
30 Oct - 14:58:27 10° W 15:00:40 12° W 15:02:54 10° WSW daylight
